sat.trackr.live / text

‹ back to catalog

STARLINK-5244

NORAD 54199 · 2022-141AU

PAYLOAD ACTIVE UNKNOWN

§ Identity

Operator
Country
US
Launch date
2022-10-28
Launch site
AFWTR
Launch vehicle
Mass (kg)
RCS (m²)

Purposes: comms

External: N2YO · Heavens-Above · Gunter

§ Orbital elements

Epoch: 2026-09-20T07:04:11.820000Z

Period
93.79 min
Inclination
53.1603°
Eccentricity
0.0001087
Mean motion
15.35415017 rev/d
Perigee alt
458.9 km
Apogee alt
460.4 km
Semi-major
6,837.8 km
B*
-4.6803e-5
RAAN
188.8287°
Arg perigee
84.6157°
Mean anomaly
275.4970°
Rev number
21,553

§ Raw data

STARLINK-52441 54199U 22141AU  26263.29458125 -.00002013  00000+0 -46803-4 0  99952 54199  53.1603 188.8287 0001087  84.6157 275.4970 15.35415017215539

JSON: /api/v1/satellites/54199 · /tle

For live sub-satellite position, see the globe view (requires WebGL).

§ Visibility from observer

Set your observer location to see the next 7 days of passes ≥ 10°. The values pass through the URL so the page stays shareable.

No JS? Fill the form by hand. The geolocation button needs JavaScript.